This demonstration page uses our WeatherBlox Daily Observations layout. Learn more.

Left ArrowRight Arrow

Hourly Observations for January 25, 2019

Temp ( °F °C ) Dew Point ( °F °C ) Humidity (%) Winds ( mph kmh ) Pressure ( in mb ) Visibility ( mi km ) Precip ( " mm )
12:51 am 00:51 Clear 32 undefined 19 -7.2 59 59 ENE 5 7 30.16 1021 10 16 N/A
1:51 am 01:51 Clear 31 -0.6 19 -7.2 61 61 N N/A 30.15 1021 10 16 N/A
2:51 am 02:51 Clear 32 undefined 19 -7.2 59 59 SE 3 6 30.14 1021 10 16 N/A
3:51 am 03:51 Clear 28 -2.2 18 -7.8 66 66 N N/A 30.16 1021 10 16 N/A
4:51 am 04:51 Clear 25 -3.9 18 -7.8 75 75 N N/A 30.16 1021 10 16 N/A
5:51 am 05:51 Clear 28 -2.2 18 -7.8 66 66 S 3 6 30.17 1022 10 16 N/A
6:51 am 06:51 Clear 25 -3.9 18 -7.8 75 75 SE 3 6 30.21 1023 10 16 N/A
7:51 am 07:51 Sunny 29 -1.7 18 -7.8 63 63 N N/A 30.22 1023 10 16 N/A
8:51 am 08:51 Sunny 39 3.9 19 -7.2 45 45 N N/A 30.21 1023 10 16 N/A
9:51 am 09:51 Sunny 44 6.7 18 -7.8 35 35 SSW 3 6 30.21 1023 10 16 N/A
10:51 am 10:51 Sunny 49 9.4 18 -7.8 29 29 VRB 5 7 30.19 1022 10 16 N/A
11:51 am 11:51 Sunny 53 11.7 17 -8.3 24 24 N N/A 30.16 1021 10 16 N/A
12:51 pm 12:51 Sunny 56 13.3 17 -8.3 22 22 N N/A 30.11 1020 10 16 N/A
1:51 pm 13:51 Sunny 59 15 15 -9.4 18 18 SE 3 6 30.06 1018 10 16 N/A
2:51 pm 14:51 Sunny 61 16.1 13 -10.6 15 15 SW 3 6 30.03 1017 10 16 N/A
3:51 pm 15:51 Sunny 60 15.6 11 -11.7 14 14 N N/A 30.04 1017 10 16 N/A
4:51 pm 16:51 Sunny 61 16.1 13 -10.6 15 15 WNW 5 7 30.02 1017 10 16 N/A
5:51 pm 17:51 Clear 55 12.8 15 -9.4 20 20 W 5 7 30.02 1017 10 16 N/A
6:51 pm 18:51 Clear 45 7.2 18 -7.8 34 34 N 5 7 30.05 1018 10 16 N/A
7:51 pm 19:51 Clear 44 6.7 18 -7.8 35 35 NNE 7 11 30.05 1018 10 16 N/A
8:51 pm 20:51 Clear 42 5.6 19 -7.2 40 40 ENE 3 6 30.05 1018 10 16 N/A
9:51 pm 21:51 Clear 40 4.4 20 -6.7 45 45 N N/A 30.06 1018 10 16 N/A
10:51 pm 22:51 Clear 39 3.9 20 -6.7 46 46 NW 3 6 30.06 1018 10 16 N/A
11:51 pm 23:51 Clear 40 4.4 20 -6.7 45 45 E 6 9 30.06 1018 10 16 N/A

Powered by AerisWeather